This is the latest recevied weather packets stored in our database for station/object SQ9SMC-13. If no packets are shown the sender has not sent any weather packets the latest 10 day(s).
| Time | Temp. | Humidity | Pressure | Rain* | Wind** | Luminosity | Snow |
|---|---|---|---|---|---|---|---|
| 1777263902 | -1.11° C | 85% | 1025 hPa | 0 mm | - | 39 W/m² | - |
| 1777263603 | -1.67° C | 89% | 1024.8 hPa | 0 mm | - | 34 W/m² | - |
| 1777263303 | -2.22° C | 92% | 1024.7 hPa | 0 mm | - | 29 W/m² | - |
| 1777263003 | -3.33° C | 93% | 1024.7 hPa | 0 mm | - | 23 W/m² | - |
| 1777262702 | -3.33° C | 93% | 1024.9 hPa | 0 mm | - | 18 W/m² | - |
| 1777262406 | -3.89° C | 92% | 1024.6 hPa | 0 mm | - | 13 W/m² | - |
| 1777262103 | -3.89° C | 92% | 1024.7 hPa | 0 mm | - | 10 W/m² | - |
| 1777261803 | -3.89° C | 92% | 1024.7 hPa | 0 mm | - | 9 W/m² | - |
| 1777261502 | -3.33° C | 91% | 1024.8 hPa | 0 mm | - | 7 W/m² | - |
| 1777261204 | -3.33° C | 91% | 1024.8 hPa | 0 mm | - | 6 W/m² | - |
| 1777260903 | -3.33° C | 91% | 1024.7 hPa | 0 mm | - | 4 W/m² | - |
| 1777260607 | -2.78° C | 92% | 1024.6 hPa | 0 mm | - | 2 W/m² | - |
| 1777260304 | -3.33° C | 92% | 1024.7 hPa | 0 mm | - | 1 W/m² | - |
| 1777260003 | -3.33° C | 92% | 1024.8 hPa | 0 mm | - | 1 W/m² | - |
| 1777259704 | -3.33° C | 92% | 1024.8 hPa | 0 mm | - | 0 W/m² | - |
| 1777259404 | -3.33° C | 92% | 1024.8 hPa | 0 mm | - | 0 W/m² | - |
| 1777259103 | -3.33° C | 92% | 1024.9 hPa | 0 mm | - | 0 W/m² | - |
| 1777258803 | -3.33° C | 93% | 1024.9 hPa | 0 mm | - | 0 W/m² | - |
| 1777258503 | -3.33° C | 93% | 1024.9 hPa | 0 mm | - | 0 W/m² | - |
| 1777258204 | -3.33° C | 93% | 1024.9 hPa | 0 mm | - | 0 W/m² | - |
| 1777257902 | -3.33° C | 93% | 1025 hPa | 0 mm | - | 0 W/m² | - |
| 1777257603 | -3.33° C | 93% | 1024.9 hPa | 0 mm | - | 0 W/m² | - |
| 1777257304 | -3.89° C | 94% | 1025 hPa | 0 mm | - | 0 W/m² | - |
| 1777257003 | -3.89° C | 94% | 1025 hPa | 0 mm | - | 0 W/m² | - |
| 1777256705 | -3.89° C | 94% | 1025 hPa | 0 mm | - | 0 W/m² | - |
* Rain latest hour (hover to see other rain measurements)
** Current wind speed in m/s (hover to see current wind gust speed)